Cosmos 2369 Rocket - Orbit

View from above orbital plane
View from above orbital plane
View from above satellite
View from above satellite

Ground track
Ground track

The orbit data is extracted from the following two-line orbital elements,

1 26070U 00006B   13167.18608518 -.00000180  00000-0 -67838-4 0   949
2 26070 071.0025 148.7249 0014921 050.7287 309.5157 14.15288650690615
Epoch (UTC): 16 June 2013 04:27:57
Eccentricity: 0.0014921
inclination: 71.0025°
perigee height: 830 km
apogee height: 852 km
right ascension of ascending node: 148.7249°
argument of perigee: 50.7287°
revolutions per day: 14.15288650
mean anomaly at epoch: 309.5157°
orbit number at epoch: 69061

The dashed part of the orbit path shows where the satellite is in the earth's shadow,  

Developed and maintained by Chris Peat, Heavens-Above GmbH. Please read the updated FAQ before sending e-mail. Imprint. DLR